[Iaude] MPEC M42: 2022 MV [a=1.77,e=0.46,i=20.2,H=23.1]

mpec at marsden.cfa.harvard.edu mpec at marsden.cfa.harvard.edu
Thu Jun 23 06:12:00 EDT 2022


M.P.E.C. 2022-M42                                 Issued 2022 June 23, 10:10 UT

     The Minor Planet Electronic Circulars contain information on unusual
         minor planets and routine data on comets.  They are published
    on behalf of Division F of the International Astronomical Union by the
          Minor Planet Center, Smithsonian Astrophysical Observatory,
                          Cambridge, MA 02138, U.S.A.

             Prepared using the Tamkin Foundation Computer Network

                              MPC at CFA.HARVARD.EDU
            URL https://www.minorplanetcenter.net/    ISSN 1523-6714

                                    2022 MV                                     


Observations:
     K22M00V* C2022 06 21.46610121 01 16.765-16 03 20.77         19.36wUEM042F52
     K22M00V  C2022 06 21.47825721 01 09.197-16 00 51.09         19.48wUEM042F52
     K22M00V  C2022 06 21.50261821 00 54.030-15 55 51.87         19.44wUEM042F52
     K22M00V  C2022 06 21.59438620 59 56.905-15 37 03.11               VEM042F52
     K22M00V  C2022 06 21.59449620 59 56.807-15 37 00.93               VEM042F52
     K22M00V KC2022 06 22.01336120 56 02.65 -14 13 07.0          19.8 GXEM042I93
     K22M00V KC2022 06 22.02034220 55 58.62 -14 11 44.5          19.9 GXEM042I93
     K22M00V KC2022 06 22.08336520 55 20.65 -13 57 48.5                VEM042M21
     K22M00V KC2022 06 22.09823520 55 11.86 -13 54 52.7          19.4 GVEM042M21
     K22M00V ^C2022 06 22.57977920 50 52.127-12 23 04.43         19.49GVEM042568
     K22M00V ^C2022 06 22.58113320 50 51.368-12 22 49.10         19.46GVEM042568
     K22M00V ^C2022 06 22.58239820 50 50.655-12 22 34.66         19.46GVEM042568
     K22M00V ^C2022 06 22.58337720 50 50.100-12 22 23.40         19.46GVEM042568
     K22M00V ^C2022 06 22.59200920 50 45.263-12 20 45.39         19.55GVEM042568
     K22M00V ^C2022 06 22.59298620 50 44.711-12 20 34.19         19.51GVEM042568
     K22M00V KC2022 06 23.02304820 47 06.67 -11 01 15.6          19.9 GVEM042L01
     K22M00V KC2022 06 23.02444020 47 05.96 -11 01 00.3          20.0 GVEM042L01
     K22M00V KC2022 06 23.02588720 47 05.15 -11 00 43.3          19.8 GVEM042L01
     K22M00V IC2022 06 23.02872120 47 03.64 -11 00 13.4          19.6 GVEM042L01
     K22M00V KC2022 06 23.23708720 45 21.92 -10 22 30.2          19.7 VuEM042H21
     K22M00V KC2022 06 23.23923020 45 20.82 -10 22 07.1          19.8 VuEM042H21
     K22M00V KC2022 06 23.25041820 45 15.06 -10 20 07.9          20.0 VuEM042H21

Observer details:
568 Mauna Kea.  Observers R. Wainscoat, L. Wells, T. Burdullis.  Measurers R.
    Weryk, R. Wainscoat.  3.6-m Canada-France-Hawaii Telescope + CCD.
F52 Pan-STARRS 2, Haleakala.  Observers J. Bulger, T. Lowe, A. Schultz, I.
    Smith, K. Chambers, T. Dukes.  Measurers K. Chambers, S. Chastel, T. de
    Boer, J. Fairlamb, H. Gao, M. Huber, C.-C. Lin, E. Magnier, Y.
    Ramanjooloo, R. Wainscoat, R. Weryk.  1.8-m Ritchey-Chretien + CCD.
H21 Astronomical Research Observatory, Westfield.  Observer R. Holmes.
    Measurers T. Linder, R. Holmes, L. Horn.  0.76-m f/3.0 astrograph + CCD.
I93 St Pardon de Conques.  Observer F. Losse.  0.40-m f/3.7 reflector + CCD.
L01 Visnjan Observatory, Tican.  Observer K. Korlevic.  1.0-m f/2.9 reflector
    + CCD.
M21 Schiaparelli Southern Observatory, Hakos.  Observers A. Aletti, F.
    Bellini, L. Buzzi, G. Galli.  Measurer L. Buzzi.  0.36-m f/8.4 reflector +
    CCD.

Orbital elements:
2022 MV                                                  Earth MOID = 0.0540 AU
Epoch 2022 Aug. 9.0 TT = JDT 2459800.5                  Veres                   
M  38.79189              (2000.0)            P               Q                  
n   0.41995800     Peri.  309.30075     -0.69289886     +0.63307566             
a   1.7660330      Node   272.92440     -0.50798821     -0.76829616             
e   0.4564755      Incl.   20.21647     -0.51170221     -0.09453156             
P   2.35           H   23.16          G   0.15           U   8                  
Residuals in seconds of arc
220621 F52  0.1-  0.1-    220622 M21  0.3-  0.1-    220623 L01  0.4+  0.2-
220621 F52  0.1-  0.1+    220622 568  0.0   0.0     220623 L01  0.2-  1.0+
220621 F52  0.0   0.2-    220622 568  0.1+  0.1-    220623 L01  0.4-  0.1+
220621 F52  0.1+  0.0     220622 568  0.0   0.0     220623 H21  0.0   0.2-
220621 F52  0.3-  0.9+    220622 568  0.1-  0.1+    220623 H21  0.1+  0.0
220622 I93  0.4+  0.3+    220622 568  0.0   0.0     220623 H21  0.0   0.1-
220622 I93  0.6+  0.4+    220622 568  0.0   0.1+
220622 M21  0.1+  0.2-    220623 L01  0.0   0.3-

Ephemeris:
2022 MV                  a,e,i = 1.77, 0.46, 20                  q = 0.9599
Date    TT    R. A. (2000) Decl.     Delta      r    Elong.  Phase     V
2022 05 24    04 55 33.0 -52 03 22   0.1840  0.9769    73.7    95.9    22.9
...
2022 06 08    01 26 31.9 -57 42 17   0.09980 1.0237    92.2    82.2    21.1
...
2022 06 16    22 14 30.3 -37 19 49   0.08169 1.0586   119.7    56.5    19.9
...
2022 06 22    20 56 07.6 -14 14 40   0.09489 1.0884   137.8    38.9    19.8
2022 06 23    20 47 17.3 -11 04 23   0.09905 1.0936   139.6    37.1    19.8
2022 06 24    20 39 17.2 -08 09 51   0.1036  1.0989   141.0    35.6    19.9
...
2022 06 30    20 03 57.8 +04 24 41   0.1378  1.1321   144.8    31.2    20.5
...
2022 07 08    19 36 37.9 +12 38 18   0.1938  1.1792   144.1    30.4    21.3
...
2022 07 23    19 12 24.7 +17 16 47   0.3149  1.2738   140.1    30.8    22.5

M. P. C. Staff               (C) Copyright 2022 MPC           M.P.E.C. 2022-M42




More information about the Iaude mailing list